Time,TemperatureF,DewpointF,PressureIn,WindDirection,WindDirectionDegrees,WindSpeedMPH,WindSpeedGustMPH,Humidity,HourlyPrecipIn,Conditions,Clouds,dailyrainin,SoftwareType,DateUTC
2013-04-11 00:03:00,43.9,43.9,29.44,North,0,0.7,4.6,100,0.06,RA,SKC,0.01,WeatherDisplay:10.37,2013-04-10 23:03:00,
2013-04-11 00:08:00,43.9,43.9,29.43,North,0,0.0,3.5,100,0.05,RA,SKC,0.01,WeatherDisplay:10.37,2013-04-10 23:08:00,
2013-04-11 00:13:00,43.9,43.9,29.43,ESE,112,2.2,6.9,100,0.05,,SKC,0.01,WeatherDisplay:10.37,2013-04-10 23:13:00,
2013-04-11 00:18:00,43.9,43.9,29.42,North,0,0.0,4.6,100,0.05,CLR,SKC,0.01,WeatherDisplay:10.37,2013-04-10 23:18:00,
2013-04-11 00:23:00,43.9,43.9,29.42,SE,135,0.7,8.1,100,0.04,CLR,SKC,0.01,WeatherDisplay:10.37,2013-04-10 23:23:00,
2013-04-11 00:28:00,44.1,44.1,29.42,NW,315,0.7,6.0,100,0.04,CLR,SKC,0.01,WeatherDisplay:10.37,2013-04-10 23:28:00,
2013-04-11 00:33:00,44.1,44.1,29.42,South,180,2.2,5.4,100,0.02,CLR,SKC,0.01,WeatherDisplay:10.37,2013-04-10 23:33:00,
2013-04-11 00:38:00,44.1,44.1,29.41,SE,135,0.7,3.5,100,0.02,CLR,SKC,0.01,WeatherDisplay:10.37,2013-04-10 23:38:00,
2013-04-11 00:43:00,44.1,44.1,29.41,South,180,1.6,4.6,100,0.02,CLR,SKC,0.01,WeatherDisplay:10.37,2013-04-10 23:43:00,
2013-04-11 00:48:00,44.1,44.1,29.41,East,90,2.2,5.8,100,0.02,CLR,SKC,0.01,WeatherDisplay:10.37,2013-04-10 23:48:00,
2013-04-11 00:53:00,44.1,44.1,29.41,NE,45,1.6,4.6,100,0.02,RA,SKC,0.02,WeatherDisplay:10.37,2013-04-10 23:53:00,
2013-04-11 00:58:00,44.1,44.1,29.40,NW,315,1.6,4.6,100,0.02,RA,SKC,0.02,WeatherDisplay:10.37,2013-04-10 23:58:00,
2013-04-11 01:03:00,44.1,44.1,29.40,West,270,1.6,5.8,100,0.01,,SKC,0.02,WeatherDisplay:10.37,2013-04-11 00:03:00,
2013-04-11 01:08:00,44.1,44.1,29.41,NE,45,0.7,6.9,100,0.02,RA,SKC,0.04,WeatherDisplay:10.37,2013-04-11 00:08:00,
2013-04-11 01:14:00,44.1,44.1,29.40,NE,45,0.0,3.5,100,0.02,RA,SKC,0.04,WeatherDisplay:10.37,2013-04-11 00:14:00,
2013-04-11 01:19:00,43.9,43.9,29.40,South,180,1.6,5.8,100,0.02,CLR,SKC,0.04,WeatherDisplay:10.37,2013-04-11 00:19:00,
2013-04-11 01:24:00,43.3,43.3,29.40,SE,135,0.0,8.1,100,0.04,RA,SKC,0.05,WeatherDisplay:10.37,2013-04-11 00:24:00,
2013-04-11 01:29:00,43.9,43.9,29.40,NE,45,0.7,6.9,100,0.04,RA,SKC,0.05,WeatherDisplay:10.37,2013-04-11 00:29:00,
2013-04-11 01:34:00,43.9,43.9,29.39,WSW,248,0.7,3.5,100,0.04,,SKC,0.05,WeatherDisplay:10.37,2013-04-11 00:34:00,
2013-04-11 01:39:00,43.9,43.9,29.39,NE,45,0.0,3.5,100,0.05,RA,SKC,0.06,WeatherDisplay:10.37,2013-04-11 00:39:00,
2013-04-11 01:44:00,43.9,43.9,29.40,North,0,1.6,5.8,100,0.05,RA,SKC,0.06,WeatherDisplay:10.37,2013-04-11 00:44:00,
2013-04-11 01:49:00,43.9,43.9,29.39,NW,315,0.7,3.8,100,0.05,,SKC,0.06,WeatherDisplay:10.37,2013-04-11 00:49:00,
2013-04-11 01:54:00,43.9,43.9,29.39,WSW,248,0.7,8.1,100,0.04,CLR,SKC,0.06,WeatherDisplay:10.37,2013-04-11 00:54:00,
2013-04-11 01:59:00,43.9,43.9,29.39,North,0,0.7,3.8,100,0.04,,SKC,0.06,WeatherDisplay:10.37,2013-04-11 00:59:00,
2013-04-11 02:04:00,43.7,43.7,29.39,WSW,248,1.6,6.9,100,0.05,RA,SKC,0.07,WeatherDisplay:10.37,2013-04-11 01:04:00,
2013-04-11 02:09:00,43.7,43.7,29.38,SSE,158,2.2,8.1,100,0.04,RA,SKC,0.07,WeatherDisplay:10.37,2013-04-11 01:09:00,
2013-04-11 02:14:00,43.7,43.7,29.39,NE,45,0.0,4.6,100,0.04,,SKC,0.07,WeatherDisplay:10.37,2013-04-11 01:14:00,
2013-04-11 02:19:00,43.7,43.7,29.39,East,90,1.6,5.8,100,0.05,RA,SKC,0.08,WeatherDisplay:10.37,2013-04-11 01:19:00,
2013-04-11 02:24:00,43.7,43.7,29.39,North,0,0.7,3.5,100,0.04,RA,SKC,0.08,WeatherDisplay:10.37,2013-04-11 01:24:00,
2013-04-11 02:29:00,43.5,43.5,29.38,South,180,0.7,3.5,100,0.04,CLR,SKC,0.08,WeatherDisplay:10.37,2013-04-11 01:29:00,
2013-04-11 02:34:00,43.5,43.5,29.38,SE,135,0.0,3.5,100,0.04,,SKC,0.08,WeatherDisplay:10.37,2013-04-11 01:34:00,
2013-04-11 02:39:00,43.5,43.5,29.37,NE,45,0.7,4.6,100,0.02,,SKC,0.08,WeatherDisplay:10.37,2013-04-11 01:39:00,
2013-04-11 02:44:00,43.5,43.5,29.38,NE,45,0.7,5.8,100,0.02,,SKC,0.08,WeatherDisplay:10.37,2013-04-11 01:44:00,
2013-04-11 02:49:00,43.3,43.3,29.38,WSW,248,0.7,5.8,100,0.02,,SKC,0.08,WeatherDisplay:10.37,2013-04-11 01:49:00,
2013-04-11 02:54:00,43.3,43.3,29.38,NW,315,0.7,8.1,100,0.04,RA,SKC,0.09,WeatherDisplay:10.37,2013-04-11 01:54:00,
2013-04-11 02:59:00,43.3,43.3,29.38,NE,45,0.0,6.9,100,0.04,RA,SKC,0.09,WeatherDisplay:10.37,2013-04-11 01:59:00,
2013-04-11 03:04:00,43.3,43.3,29.37,SE,135,1.6,4.6,100,0.02,CLR,SKC,0.09,WeatherDisplay:10.37,2013-04-11 02:04:00,
2013-04-11 03:09:00,43.3,43.3,29.37,SSE,158,1.6,6.0,100,0.04,RA,SKC,0.11,WeatherDisplay:10.37,2013-04-11 02:09:00,
2013-04-11 03:14:00,43.3,43.3,29.37,SE,135,3.1,9.2,100,0.04,RA,SKC,0.11,WeatherDisplay:10.37,2013-04-11 02:14:00,
2013-04-11 03:19:00,43.3,43.3,29.37,NE,45,0.7,3.8,100,0.02,,SKC,0.11,WeatherDisplay:10.37,2013-04-11 02:19:00,
2013-04-11 03:24:00,43.3,43.3,29.37,SSW,202,2.2,8.1,100,0.02,CLR,SKC,0.11,WeatherDisplay:10.37,2013-04-11 02:24:00,
2013-04-11 03:29:00,43.3,43.3,29.37,NNE,22,0.7,3.5,100,0.02,,SKC,0.11,WeatherDisplay:10.37,2013-04-11 02:29:00,
2013-04-11 03:34:00,43.3,43.3,29.36,NW,315,0.7,3.5,100,0.02,,SKC,0.11,WeatherDisplay:10.37,2013-04-11 02:34:00,
2013-04-11 03:39:00,43.3,43.3,29.36,East,90,2.2,6.9,100,0.02,,SKC,0.11,WeatherDisplay:10.37,2013-04-11 02:39:00,
2013-04-11 03:44:00,43.3,43.3,29.38,WSW,248,0.7,4.6,100,0.02,,SKC,0.11,WeatherDisplay:10.37,2013-04-11 02:44:00,
2013-04-11 03:49:00,43.3,43.3,29.38,NE,45,0.0,3.5,100,0.02,,SKC,0.11,WeatherDisplay:10.37,2013-04-11 02:49:00,
2013-04-11 03:54:00,43.3,43.3,29.37,NE,45,0.0,3.5,100,0.02,RA,SKC,0.12,WeatherDisplay:10.37,2013-04-11 02:54:00,
2013-04-11 03:59:00,43.3,43.3,29.37,NW,315,1.6,3.8,100,0.02,RA,SKC,0.12,WeatherDisplay:10.37,2013-04-11 02:59:00,
2013-04-11 04:04:00,43.5,43.5,29.37,West,270,0.0,2.3,100,0.02,,SKC,0.12,WeatherDisplay:10.37,2013-04-11 03:04:00,
2013-04-11 04:09:00,43.5,43.5,29.37,SE,135,0.0,5.8,100,0.01,CLR,SKC,0.12,WeatherDisplay:10.37,2013-04-11 03:09:00,
2013-04-11 04:14:00,43.5,43.5,29.37,WSW,248,1.6,5.8,100,0.01,CLR,SKC,0.12,WeatherDisplay:10.37,2013-04-11 03:14:00,
2013-04-11 04:19:00,43.5,43.5,29.37,NE,45,0.7,3.5,100,0.01,CLR,SKC,0.12,WeatherDisplay:10.37,2013-04-11 03:19:00,
2013-04-11 04:24:00,43.5,43.5,29.37,NE,45,1.6,3.8,100,0.01,CLR,SKC,0.12,WeatherDisplay:10.37,2013-04-11 03:24:00,
2013-04-11 04:30:00,43.5,43.5,29.37,WSW,248,0.7,2.3,100,0.02,RA,SKC,0.13,WeatherDisplay:10.37,2013-04-11 03:30:00,
2013-04-11 04:35:00,43.5,43.5,29.37,NW,315,2.2,3.8,100,0.02,RA,SKC,0.13,WeatherDisplay:10.37,2013-04-11 03:35:00,
2013-04-11 04:40:00,43.5,43.5,29.37,SE,135,1.6,4.6,100,0.02,CLR,SKC,0.13,WeatherDisplay:10.37,2013-04-11 03:40:00,
2013-04-11 04:45:00,43.5,43.5,29.38,East,93,1.0,4.0,100,0.00,CLR,SKC,0.13,WeatherDisplay:10.37,2013-04-11 03:45:00,
2013-04-11 04:50:00,43.5,43.5,29.37,NE,45,0.0,3.5,100,0.02,CLR,SKC,0.13,WeatherDisplay:10.37,2013-04-11 03:50:00,
2013-04-11 04:55:00,43.5,43.5,29.37,NNE,22,0.0,3.0,100,0.00,CLR,SKC,0.13,WeatherDisplay:10.37,2013-04-11 03:55:00,
2013-04-11 05:00:00,43.3,43.3,29.37,WNW,292,0.7,3.5,100,0.01,,SKC,0.13,WeatherDisplay:10.37,2013-04-11 04:00:00,
2013-04-11 05:05:00,43.2,43.2,29.37,NE,45,1.6,3.8,100,0.01,,SKC,0.13,WeatherDisplay:10.37,2013-04-11 04:05:00,
2013-04-11 05:10:00,43.2,43.2,29.38,South,180,0.0,2.3,100,0.01,,SKC,0.13,WeatherDisplay:10.37,2013-04-11 04:10:00,
2013-04-11 05:15:00,43.0,43.0,29.38,NE,45,0.0,3.5,100,0.02,RA,SKC,0.14,WeatherDisplay:10.37,2013-04-11 04:15:00,
2013-04-11 05:20:00,43.0,43.0,29.38,SE,135,0.7,3.5,100,0.02,RA,SKC,0.14,WeatherDisplay:10.37,2013-04-11 04:20:00,
2013-04-11 05:25:00,42.8,42.8,29.37,East,90,0.7,3.5,100,0.02,CLR,SKC,0.14,WeatherDisplay:10.37,2013-04-11 04:25:00,
2013-04-11 05:30:00,42.8,42.8,29.38,South,180,0.7,3.5,100,0.01,,SKC,0.14,WeatherDisplay:10.37,2013-04-11 04:30:00,
2013-04-11 05:35:00,42.8,42.8,29.38,South,180,0.0,3.5,100,0.01,,SKC,0.14,WeatherDisplay:10.37,2013-04-11 04:35:00,
2013-04-11 05:40:00,42.8,42.8,29.38,NE,45,0.0,3.5,100,0.01,,SKC,0.14,WeatherDisplay:10.37,2013-04-11 04:40:00,
2013-04-11 05:45:00,42.8,42.8,29.38,East,90,0.0,1.6,100,0.01,,SKC,0.14,WeatherDisplay:10.37,2013-04-11 04:45:00,
2013-04-11 05:50:00,42.8,42.8,29.38,North,0,0.0,5.8,100,0.01,,SKC,0.14,WeatherDisplay:10.37,2013-04-11 04:50:00,
2013-04-11 05:55:00,42.6,42.6,29.38,SE,135,0.7,3.1,100,0.01,,SKC,0.14,WeatherDisplay:10.37,2013-04-11 04:55:00,
2013-04-11 06:00:00,42.6,42.6,29.38,East,90,1.6,5.4,100,0.01,,SKC,0.14,WeatherDisplay:10.37,2013-04-11 05:00:00,
2013-04-11 06:05:00,42.6,42.6,29.38,East,90,0.0,5.8,100,0.02,RA,SKC,0.15,WeatherDisplay:10.37,2013-04-11 05:05:00,
2013-04-11 06:10:00,42.6,42.6,29.39,South,180,0.0,3.5,100,0.02,RA,SKC,0.15,WeatherDisplay:10.37,2013-04-11 05:10:00,
2013-04-11 06:15:00,42.6,42.6,29.39,East,90,0.7,3.1,100,0.01,,SKC,0.15,WeatherDisplay:10.37,2013-04-11 05:15:00,
2013-04-11 06:20:00,42.4,42.4,29.39,WSW,248,0.0,3.5,100,0.01,CLR,SKC,0.15,WeatherDisplay:10.37,2013-04-11 05:20:00,
2013-04-11 06:25:00,42.4,42.4,29.39,North,0,0.7,2.3,100,0.01,,SKC,0.15,WeatherDisplay:10.37,2013-04-11 05:25:00,
2013-04-11 06:30:00,42.4,42.4,29.39,NW,315,0.0,3.5,100,0.01,,SKC,0.15,WeatherDisplay:10.37,2013-04-11 05:30:00,
2013-04-11 06:35:00,42.4,42.4,29.39,NE,45,0.0,1.6,100,0.01,,SKC,0.15,WeatherDisplay:10.37,2013-04-11 05:35:00,
2013-04-11 06:40:00,42.4,42.4,29.40,NW,315,0.7,5.8,100,0.01,,SKC,0.15,WeatherDisplay:10.37,2013-04-11 05:40:00,
2013-04-11 06:46:00,42.4,42.4,29.39,NE,45,0.0,3.5,100,0.01,,SKC,0.15,WeatherDisplay:10.37,2013-04-11 05:46:00,
2013-04-11 06:51:00,42.4,42.4,29.39,NE,45,1.6,3.5,100,0.01,,SKC,0.15,WeatherDisplay:10.37,2013-04-11 05:51:00,
2013-04-11 06:56:00,42.4,42.4,29.40,SE,135,0.0,3.5,100,0.01,,SKC,0.15,WeatherDisplay:10.37,2013-04-11 05:56:00,
2013-04-11 07:01:00,42.4,42.4,29.40,North,0,0.7,3.5,100,0.01,,SKC,0.15,WeatherDisplay:10.37,2013-04-11 06:01:00,
2013-04-11 07:06:00,42.4,42.4,29.41,NE,45,0.0,2.3,100,0.00,,SKC,0.15,WeatherDisplay:10.37,2013-04-11 06:06:00,
2013-04-11 07:11:00,42.4,42.4,29.41,NE,45,0.7,2.3,100,0.00,,SKC,0.15,WeatherDisplay:10.37,2013-04-11 06:11:00,
2013-04-11 07:16:00,42.4,42.4,29.41,South,180,0.7,3.1,100,0.00,,SKC,0.15,WeatherDisplay:10.37,2013-04-11 06:16:00,
2013-04-11 07:21:00,42.4,42.4,29.42,East,90,0.0,3.5,100,0.00,,SKC,0.15,WeatherDisplay:10.37,2013-04-11 06:21:00,
2013-04-11 07:26:00,42.4,42.4,29.42,NNE,22,0.0,1.6,100,0.00,,SKC,0.15,WeatherDisplay:10.37,2013-04-11 06:26:00,
2013-04-11 07:31:00,42.4,42.4,29.42,East,90,0.0,2.3,100,0.00,,SKC,0.15,WeatherDisplay:10.37,2013-04-11 06:31:00,
2013-04-11 07:36:00,42.4,42.4,29.42,ESE,112,0.7,3.1,100,0.00,,SKC,0.15,WeatherDisplay:10.37,2013-04-11 06:36:00,
2013-04-11 07:41:00,42.4,42.4,29.42,NE,45,0.0,2.3,100,0.00,,SKC,0.15,WeatherDisplay:10.37,2013-04-11 06:41:00,
2013-04-11 07:46:00,42.4,42.4,29.42,NE,45,0.0,3.5,100,0.00,,SKC,0.15,WeatherDisplay:10.37,2013-04-11 06:46:00,
2013-04-11 07:52:00,42.4,42.4,29.43,NE,45,0.0,3.5,100,0.00,,SKC,0.15,WeatherDisplay:10.37,2013-04-11 06:52:00,
2013-04-11 07:57:00,42.6,42.6,29.43,North,0,0.0,3.5,100,0.00,,SKC,0.15,WeatherDisplay:10.37,2013-04-11 06:57:00,
2013-04-11 08:02:00,42.6,42.6,29.44,WSW,248,0.7,1.6,100,0.00,,SKC,0.15,WeatherDisplay:10.37,2013-04-11 07:02:00,
2013-04-11 08:07:00,42.6,42.6,29.44,NE,45,0.0,2.3,100,0.00,,SKC,0.15,WeatherDisplay:10.37,2013-04-11 07:07:00,
2013-04-11 08:12:00,42.6,42.6,29.44,NW,315,0.0,1.6,100,0.00,,SKC,0.15,WeatherDisplay:10.37,2013-04-11 07:12:00,
2013-04-11 08:17:00,42.6,42.6,29.44,East,90,0.0,2.3,100,0.00,,SKC,0.15,WeatherDisplay:10.37,2013-04-11 07:17:00,
2013-04-11 08:22:00,42.6,42.6,29.44,North,0,1.6,3.8,100,0.00,,SKC,0.15,WeatherDisplay:10.37,2013-04-11 07:22:00,
2013-04-11 08:27:00,42.8,42.8,29.44,East,90,0.0,2.3,100,0.00,,SKC,0.15,WeatherDisplay:10.37,2013-04-11 07:27:00,
2013-04-11 08:32:00,42.8,42.8,29.44,East,90,0.0,1.1,100,0.00,,SKC,0.15,WeatherDisplay:10.37,2013-04-11 07:32:00,
2013-04-11 08:37:00,42.8,42.8,29.45,NW,315,0.0,1.1,100,0.00,,SKC,0.15,WeatherDisplay:10.37,2013-04-11 07:37:00,
2013-04-11 08:42:00,42.8,42.8,29.45,NW,315,0.0,1.1,100,0.00,,SKC,0.15,WeatherDisplay:10.37,2013-04-11 07:42:00,
2013-04-11 08:47:00,42.8,42.8,29.45,North,0,0.7,1.6,100,0.00,,SKC,0.15,WeatherDisplay:10.37,2013-04-11 07:47:00,
2013-04-11 08:52:00,43.0,43.0,29.45,SE,135,0.7,2.2,100,0.00,,SKC,0.15,WeatherDisplay:10.37,2013-04-11 07:52:00,
2013-04-11 08:57:00,43.0,43.0,29.46,East,90,0.0,1.6,100,0.00,,SKC,0.15,WeatherDisplay:10.37,2013-04-11 07:57:00,
2013-04-11 09:03:00,42.8,42.8,29.46,NE,45,0.0,1.6,100,0.00,,SKC,0.15,WeatherDisplay:10.37,2013-04-11 08:03:00,
2013-04-11 09:08:00,43.0,43.0,29.46,North,0,0.0,3.5,100,0.00,,SKC,0.15,WeatherDisplay:10.37,2013-04-11 08:08:00,
2013-04-11 09:13:00,43.0,43.0,29.47,North,0,0.0,1.1,100,0.00,,SKC,0.15,WeatherDisplay:10.37,2013-04-11 08:13:00,
2013-04-11 09:18:00,43.0,43.0,29.47,South,180,0.0,2.3,100,0.00,,SKC,0.15,WeatherDisplay:10.37,2013-04-11 08:18:00,
2013-04-11 09:23:00,43.2,43.2,29.47,WSW,248,0.0,1.1,100,0.00,,SKC,0.15,WeatherDisplay:10.37,2013-04-11 08:23:00,
2013-04-11 09:28:00,43.2,43.2,29.47,North,0,0.0,2.3,100,0.00,,SKC,0.15,WeatherDisplay:10.37,2013-04-11 08:28:00,
2013-04-11 09:33:00,43.2,43.2,29.47,NE,45,0.0,1.6,100,0.00,,SKC,0.15,WeatherDisplay:10.37,2013-04-11 08:33:00,
2013-04-11 09:38:00,43.2,43.2,29.47,NW,315,0.7,2.3,100,0.00,,SKC,0.15,WeatherDisplay:10.37,2013-04-11 08:38:00,
2013-04-11 09:43:00,43.2,43.2,29.47,NW,315,0.0,1.1,100,0.00,,SKC,0.15,WeatherDisplay:10.37,2013-04-11 08:43:00,
2013-04-11 09:48:00,43.3,43.3,29.47,NW,315,0.0,1.6,100,0.00,,SKC,0.15,WeatherDisplay:10.37,2013-04-11 08:48:00,
2013-04-11 09:53:00,43.3,43.3,29.47,North,0,0.7,2.3,100,0.00,,SKC,0.15,WeatherDisplay:10.37,2013-04-11 08:53:00,
2013-04-11 09:58:00,43.3,43.3,29.48,NE,45,0.0,1.1,100,0.00,,SKC,0.15,WeatherDisplay:10.37,2013-04-11 08:58:00,
2013-04-11 10:03:00,43.5,43.5,29.48,East,90,0.0,1.1,100,0.00,,SKC,0.15,WeatherDisplay:10.37,2013-04-11 09:03:00,
2013-04-11 10:08:00,43.7,43.7,29.48,East,90,0.0,1.1,100,0.00,,SKC,0.15,WeatherDisplay:10.37,2013-04-11 09:08:00,
2013-04-11 10:13:00,43.7,43.7,29.48,NW,315,0.0,1.1,100,0.00,,SKC,0.15,WeatherDisplay:10.37,2013-04-11 09:13:00,
2013-04-11 10:18:00,43.9,43.9,29.49,NE,45,0.0,0.7,100,0.00,,SKC,0.15,WeatherDisplay:10.37,2013-04-11 09:18:00,
2013-04-11 10:23:00,43.9,43.9,29.49,North,0,0.0,1.6,100,0.00,,SKC,0.15,WeatherDisplay:10.37,2013-04-11 09:23:00,
2013-04-11 10:28:00,44.1,44.1,29.49,NE,45,0.0,0.0,100,0.00,,SKC,0.15,WeatherDisplay:10.37,2013-04-11 09:28:00,
2013-04-11 10:33:00,44.1,44.1,29.49,North,0,0.0,1.1,100,0.00,,SKC,0.15,WeatherDisplay:10.37,2013-04-11 09:33:00,
2013-04-11 10:38:00,44.2,44.2,29.49,NE,45,0.0,1.1,100,0.00,,SKC,0.15,WeatherDisplay:10.37,2013-04-11 09:38:00,
2013-04-11 10:43:00,44.2,44.2,29.49,SSW,202,0.0,1.1,100,0.00,,SKC,0.15,WeatherDisplay:10.37,2013-04-11 09:43:00,
2013-04-11 10:48:00,44.1,44.1,29.49,West,270,0.0,1.1,100,0.00,,SKC,0.15,WeatherDisplay:10.37,2013-04-11 09:48:00,
2013-04-11 10:53:00,44.2,44.2,29.49,SE,135,0.0,1.6,100,0.00,,SKC,0.15,WeatherDisplay:10.37,2013-04-11 09:53:00,
2013-04-11 10:58:00,44.2,44.2,29.49,East,90,0.0,1.1,100,0.00,,SKC,0.15,WeatherDisplay:10.37,2013-04-11 09:58:00,
2013-04-11 11:04:00,44.6,44.6,29.49,NE,45,0.0,1.6,100,0.00,,SKC,0.15,WeatherDisplay:10.37,2013-04-11 10:04:00,
2013-04-11 11:09:00,44.8,44.8,29.49,East,90,0.7,1.6,100,0.00,,SKC,0.15,WeatherDisplay:10.37,2013-04-11 10:09:00,
2013-04-11 11:14:00,45.1,45.1,29.48,North,0,0.0,1.6,100,0.00,,SKC,0.15,WeatherDisplay:10.37,2013-04-11 10:14:00,
2013-04-11 11:19:00,45.1,45.1,29.49,WNW,292,0.0,1.1,100,0.00,,SKC,0.15,WeatherDisplay:10.37,2013-04-11 10:19:00,
2013-04-11 11:20:00,54.5,50.4,29.45,South,173,0.0,1.0,86,0.00,RA,SKC,0.15,WeatherDisplay:10.37,2013-04-11 10:20:00,
2013-04-11 11:24:00,45.1,45.1,29.49,East,90,0.0,3.5,100,0.00,,SKC,0.15,WeatherDisplay:10.37,2013-04-11 10:24:00,
2013-04-11 11:25:00,54.3,49.6,29.46,WSW,245,0.0,2.0,84,0.00,RA,SKC,0.15,WeatherDisplay:10.37,2013-04-11 10:25:00,
2013-04-11 11:29:00,45.0,45.0,29.50,NE,45,0.0,1.1,100,0.00,,SKC,0.15,WeatherDisplay:10.37,2013-04-11 10:29:00,
2013-04-11 11:30:00,53.8,49.1,29.46,South,190,0.0,2.0,84,0.00,CLR,SKC,0.15,WeatherDisplay:10.37,2013-04-11 10:30:00,
2013-04-11 11:34:00,45.1,45.1,29.50,East,90,0.0,1.1,100,0.00,,SKC,0.15,WeatherDisplay:10.37,2013-04-11 10:34:00,
2013-04-11 11:35:00,54.0,49.6,29.46,ENE,68,0.0,2.0,85,0.00,CLR,SKC,0.15,WeatherDisplay:10.37,2013-04-11 10:35:00,
2013-04-11 11:39:00,45.1,45.1,29.50,North,0,0.0,1.1,100,0.00,,SKC,0.15,WeatherDisplay:10.37,2013-04-11 10:39:00,
2013-04-11 11:40:00,54.0,49.2,29.46,South,180,1.0,2.0,84,0.00,CLR,SKC,0.15,WeatherDisplay:10.37,2013-04-11 10:40:00,
2013-04-11 11:44:00,45.3,45.3,29.50,SE,135,0.0,1.1,100,0.00,,SKC,0.15,WeatherDisplay:10.37,2013-04-11 10:44:00,
2013-04-11 11:45:00,53.4,48.7,29.45,South,174,0.0,2.0,84,0.00,CLR,SKC,0.15,WeatherDisplay:10.37,2013-04-11 10:45:00,
2013-04-11 11:49:00,45.1,45.1,29.50,NE,45,0.0,1.1,100,0.00,,SKC,0.15,WeatherDisplay:10.37,2013-04-11 10:49:00,
2013-04-11 11:50:00,53.8,49.7,29.45,East,87,0.0,2.0,86,0.00,CLR,SKC,0.15,WeatherDisplay:10.37,2013-04-11 10:50:00,
2013-04-11 11:54:00,45.1,45.1,29.50,South,180,0.0,1.6,100,0.00,,SKC,0.15,WeatherDisplay:10.37,2013-04-11 10:54:00,
2013-04-11 11:55:00,54.3,49.9,29.45,ESE,113,0.0,2.0,85,0.00,CLR,SKC,0.15,WeatherDisplay:10.37,2013-04-11 10:55:00,
2013-04-11 11:59:00,45.0,45.0,29.50,South,180,0.0,1.6,100,0.00,,SKC,0.15,WeatherDisplay:10.37,2013-04-11 10:59:00,
2013-04-11 12:00:00,54.0,49.2,29.45,ENE,68,0.0,2.0,84,0.00,CLR,SKC,0.15,WeatherDisplay:10.37,2013-04-11 11:00:00,
2013-04-11 12:04:00,45.1,45.1,29.49,South,180,0.0,1.1,100,0.00,,SKC,0.15,WeatherDisplay:10.37,2013-04-11 11:04:00,
2013-04-11 12:05:00,54.1,49.7,29.45,East,99,0.0,2.0,85,0.00,CLR,SKC,0.15,WeatherDisplay:10.37,2013-04-11 11:05:00,
2013-04-11 12:09:00,45.1,45.1,29.50,NW,315,0.0,2.3,100,0.00,,SKC,0.15,WeatherDisplay:10.37,2013-04-11 11:09:00,
2013-04-11 12:10:00,56.5,52.0,29.44,SSE,160,0.0,2.0,85,0.00,CLR,SKC,0.15,WeatherDisplay:10.37,2013-04-11 11:10:00,
2013-04-11 12:14:00,45.1,45.1,29.49,North,0,0.0,1.1,100,0.00,,SKC,0.15,WeatherDisplay:10.37,2013-04-11 11:14:00,
2013-04-11 12:15:00,59.0,52.5,29.44,South,170,2.0,4.0,79,0.00,CLR,SKC,0.15,WeatherDisplay:10.37,2013-04-11 11:15:00,
2013-04-11 12:19:00,45.1,45.1,29.50,South,180,0.0,1.6,100,0.00,,SKC,0.15,WeatherDisplay:10.37,2013-04-11 11:19:00,
2013-04-11 12:20:00,59.5,52.3,29.45,South,173,1.0,4.0,77,0.00,CLR,SKC,0.15,WeatherDisplay:10.37,2013-04-11 11:20:00,
2013-04-11 12:24:00,45.3,45.3,29.50,SE,135,0.0,1.1,100,0.00,,SKC,0.15,WeatherDisplay:10.37,2013-04-11 11:24:00,
2013-04-11 12:25:00,59.7,52.1,29.44,SW,216,1.0,4.0,76,0.00,CLR,SKC,0.15,WeatherDisplay:10.37,2013-04-11 11:25:00,
2013-04-11 12:29:00,45.5,45.5,29.50,WSW,248,0.0,1.6,100,0.00,,SKC,0.15,WeatherDisplay:10.37,2013-04-11 11:29:00,
2013-04-11 12:30:00,59.2,51.3,29.45,NNW,343,1.0,4.0,75,0.00,CLR,SKC,0.15,WeatherDisplay:10.37,2013-04-11 11:30:00,
2013-04-11 12:34:00,45.5,45.5,29.50,South,180,0.0,1.6,100,0.00,,SKC,0.15,WeatherDisplay:10.37,2013-04-11 11:34:00,
2013-04-11 12:35:00,57.9,50.4,29.45,WSW,238,0.0,2.0,76,0.00,CLR,SKC,0.15,WeatherDisplay:10.37,2013-04-11 11:35:00,
2013-04-11 12:39:00,45.5,45.5,29.50,East,90,0.0,1.6,100,0.00,,SKC,0.15,WeatherDisplay:10.37,2013-04-11 11:39:00,
2013-04-11 12:40:00,56.8,50.1,29.44,SW,231,0.0,1.0,78,0.00,CLR,SKC,0.15,WeatherDisplay:10.37,2013-04-11 11:40:00,
2013-04-11 12:44:00,45.5,45.5,29.50,NW,315,0.0,2.3,100,0.00,,SKC,0.15,WeatherDisplay:10.37,2013-04-11 11:44:00,
2013-04-11 12:45:00,56.3,50.2,29.44,WSW,250,1.0,2.0,80,0.00,CLR,SKC,0.15,WeatherDisplay:10.37,2013-04-11 11:45:00,
2013-04-11 12:49:00,45.7,45.7,29.50,NE,45,0.0,1.1,100,0.00,,SKC,0.15,WeatherDisplay:10.37,2013-04-11 11:49:00,
2013-04-11 12:50:00,55.4,49.7,29.44,NW,311,0.0,2.0,81,0.00,CLR,SKC,0.15,WeatherDisplay:10.37,2013-04-11 11:50:00,
2013-04-11 12:54:00,45.9,45.9,29.50,East,90,0.0,1.1,100,0.00,,SKC,0.15,WeatherDisplay:10.37,2013-04-11 11:54:00,
2013-04-11 12:55:00,54.7,49.3,29.45,ENE,77,0.0,2.0,82,0.00,CLR,SKC,0.15,WeatherDisplay:10.37,2013-04-11 11:55:00,
2013-04-11 12:59:00,45.9,45.9,29.50,NE,45,0.0,1.6,100,0.00,,SKC,0.15,WeatherDisplay:10.37,2013-04-11 11:59:00,
2013-04-11 13:00:00,54.3,49.3,29.44,SSW,192,0.0,2.0,83,0.00,CLR,SKC,0.15,WeatherDisplay:10.37,2013-04-11 12:00:00,
2013-04-11 13:04:00,45.9,45.9,29.50,South,180,0.0,2.2,100,0.00,,SKC,0.15,WeatherDisplay:10.37,2013-04-11 12:04:00,
2013-04-11 13:05:00,53.8,49.1,29.44,SSW,206,1.0,2.0,84,0.00,CLR,SKC,0.15,WeatherDisplay:10.37,2013-04-11 12:05:00,
2013-04-11 13:09:00,45.9,45.9,29.50,SE,135,0.7,3.5,100,0.00,,SKC,0.15,WeatherDisplay:10.37,2013-04-11 12:09:00,
2013-04-11 13:10:00,53.2,48.8,29.44,SE,143,1.0,4.0,85,0.00,CLR,SKC,0.15,WeatherDisplay:10.37,2013-04-11 12:10:00,
2013-04-11 13:14:00,45.9,45.9,29.50,SE,135,0.7,2.3,100,0.00,,SKC,0.15,WeatherDisplay:10.37,2013-04-11 12:14:00,
2013-04-11 13:15:00,52.5,48.8,29.44,ESE,121,1.0,4.0,87,0.00,CLR,SKC,0.15,WeatherDisplay:10.37,2013-04-11 12:15:00,
2013-04-11 13:19:00,46.0,46.0,29.50,NE,45,0.0,1.6,100,0.00,,SKC,0.15,WeatherDisplay:10.37,2013-04-11 12:19:00,
2013-04-11 13:20:00,52.2,48.7,29.44,SSE,166,0.0,3.0,88,0.00,CLR,SKC,0.15,WeatherDisplay:10.37,2013-04-11 12:20:00,
2013-04-11 13:24:00,46.2,46.2,29.50,SE,135,0.7,2.2,100,0.00,,SKC,0.15,WeatherDisplay:10.37,2013-04-11 12:24:00,
2013-04-11 13:25:00,52.0,48.5,29.44,West,280,0.0,1.0,88,0.00,CLR,SKC,0.15,WeatherDisplay:10.37,2013-04-11 12:25:00,
2013-04-11 13:29:00,46.4,46.4,29.50,South,180,0.0,2.3,100,0.00,CLR,SKC,0.15,WeatherDisplay:10.37,2013-04-11 12:29:00,
2013-04-11 13:30:00,51.4,48.3,29.44,SE,135,1.0,2.0,89,0.00,CLR,SKC,0.15,WeatherDisplay:10.37,2013-04-11 12:30:00,
2013-04-11 13:34:00,46.8,46.8,29.50,South,180,1.6,3.5,100,0.00,CLR,SKC,0.15,WeatherDisplay:10.37,2013-04-11 12:34:00,
2013-04-11 13:35:00,51.3,48.4,29.44,SE,143,0.0,2.0,90,0.00,CLR,SKC,0.15,WeatherDisplay:10.37,2013-04-11 12:35:00,
2013-04-11 13:39:00,46.9,46.9,29.50,South,180,2.2,4.6,100,0.00,CLR,SKC,0.15,WeatherDisplay:10.37,2013-04-11 12:39:00,
2013-04-11 13:40:00,51.1,48.2,29.44,SW,223,1.0,2.0,90,0.00,CLR,SKC,0.15,WeatherDisplay:10.37,2013-04-11 12:40:00,
2013-04-11 13:44:00,47.3,47.3,29.50,South,180,0.7,3.5,100,0.00,CLR,SKC,0.15,WeatherDisplay:10.37,2013-04-11 12:44:00,
2013-04-11 13:45:00,50.7,48.2,29.44,WSW,237,1.0,3.0,91,0.00,CLR,SKC,0.15,WeatherDisplay:10.37,2013-04-11 12:45:00,
2013-04-11 13:49:00,47.5,47.5,29.50,East,90,0.7,3.8,100,0.00,CLR,SKC,0.15,WeatherDisplay:10.37,2013-04-11 12:49:00,
2013-04-11 13:50:00,50.5,48.0,29.44,South,180,1.0,3.0,91,0.00,CLR,SKC,0.15,WeatherDisplay:10.37,2013-04-11 12:50:00,
2013-04-11 13:54:00,47.8,47.6,29.50,East,90,0.0,3.5,99,0.00,CLR,SKC,0.15,WeatherDisplay:10.37,2013-04-11 12:54:00,
2013-04-11 13:55:00,50.2,47.9,29.44,South,171,1.0,2.0,92,0.00,CLR,SKC,0.15,WeatherDisplay:10.37,2013-04-11 12:55:00,
2013-04-11 13:59:00,48.4,47.8,29.50,East,90,0.7,3.5,98,0.00,CLR,SKC,0.15,WeatherDisplay:10.37,2013-04-11 12:59:00,
2013-04-11 14:00:00,50.0,48.1,29.44,NNE,15,1.0,2.0,93,0.00,CLR,SKC,0.15,WeatherDisplay:10.37,2013-04-11 13:00:00,
2013-04-11 14:04:00,49.1,48.3,29.50,WSW,248,0.0,2.3,97,0.00,CLR,SKC,0.15,WeatherDisplay:10.37,2013-04-11 13:04:00,
2013-04-11 14:05:00,49.8,47.9,29.44,East,82,0.0,2.0,93,0.00,CLR,SKC,0.15,WeatherDisplay:10.37,2013-04-11 13:05:00,
2013-04-11 14:09:00,49.8,49.0,29.50,South,180,0.0,1.1,97,0.00,CLR,SKC,0.15,WeatherDisplay:10.37,2013-04-11 13:09:00,
2013-04-11 14:10:00,49.6,47.7,29.44,SSE,157,1.0,2.0,93,0.00,CLR,SKC,0.15,WeatherDisplay:10.37,2013-04-11 13:10:00,
2013-04-11 14:14:00,49.5,47.8,29.49,South,180,1.6,3.8,94,0.00,CLR,SKC,0.15,WeatherDisplay:10.37,2013-04-11 13:14:00,
2013-04-11 14:15:00,49.5,47.8,29.44,South,174,0.0,2.0,94,0.00,CLR,SKC,0.15,WeatherDisplay:10.37,2013-04-11 13:15:00,
2013-04-11 14:19:00,49.1,47.4,29.49,NE,45,0.0,1.6,94,0.00,CLR,SKC,0.15,WeatherDisplay:10.37,2013-04-11 13:19:00,
2013-04-11 14:20:00,49.5,47.8,29.44,East,87,0.0,1.0,94,0.00,CLR,SKC,0.15,WeatherDisplay:10.37,2013-04-11 13:20:00,
2013-04-11 14:24:00,49.1,47.4,29.49,SE,135,0.7,2.3,94,0.00,CLR,SKC,0.15,WeatherDisplay:10.37,2013-04-11 13:24:00,
2013-04-11 14:25:00,49.5,47.8,29.44,SE,138,0.0,1.0,94,0.00,CLR,SKC,0.15,WeatherDisplay:10.37,2013-04-11 13:25:00,
2013-04-11 14:29:00,48.9,47.3,29.50,SE,135,0.7,3.5,94,0.00,CLR,SKC,0.15,WeatherDisplay:10.37,2013-04-11 13:29:00,
2013-04-11 14:30:00,49.3,47.6,29.44,South,174,0.0,1.0,94,0.00,CLR,SKC,0.15,WeatherDisplay:10.37,2013-04-11 13:30:00,
2013-04-11 14:34:00,48.6,46.9,29.49,West,270,0.7,2.3,94,0.00,CLR,SKC,0.15,WeatherDisplay:10.37,2013-04-11 13:34:00,
2013-04-11 14:35:00,49.3,47.6,29.44,SE,130,0.0,1.0,94,0.00,CLR,SKC,0.15,WeatherDisplay:10.37,2013-04-11 13:35:00,
2013-04-11 14:39:00,48.9,47.3,29.49,SE,135,1.6,3.8,94,0.00,CLR,SKC,0.15,WeatherDisplay:10.37,2013-04-11 13:39:00,
2013-04-11 14:40:00,49.3,47.9,29.44,ESE,121,0.0,2.0,95,0.00,CLR,SKC,0.15,WeatherDisplay:10.37,2013-04-11 13:40:00,
2013-04-11 14:45:00,49.6,48.0,29.49,SE,135,0.0,3.5,94,0.00,CLR,SKC,0.15,WeatherDisplay:10.37,2013-04-11 13:45:00,
2013-04-11 14:50:00,50.4,48.4,29.49,South,180,0.0,3.5,93,0.00,CLR,SKC,0.15,WeatherDisplay:10.37,2013-04-11 13:50:00,
2013-04-11 14:55:00,50.5,48.3,29.49,South,180,0.0,3.5,92,0.00,CLR,SKC,0.15,WeatherDisplay:10.37,2013-04-11 13:55:00,
2013-04-11 15:00:00,50.8,48.3,29.49,SSE,158,0.0,4.0,91,0.00,CLR,SKC,0.15,WeatherDisplay:10.37,2013-04-11 14:00:00,
2013-04-11 15:05:00,51.3,48.7,29.49,South,180,0.0,1.1,91,0.00,CLR,SKC,0.15,WeatherDisplay:10.37,2013-04-11 14:05:00,
2013-04-11 15:10:00,51.4,48.6,29.49,South,180,0.0,1.1,90,0.00,CLR,SKC,0.15,WeatherDisplay:10.37,2013-04-11 14:10:00,
2013-04-11 15:15:00,51.4,48.0,29.48,SE,145,1.0,5.0,88,0.00,CLR,SKC,0.15,WeatherDisplay:10.37,2013-04-11 14:15:00,
2013-04-11 15:20:00,51.3,48.2,29.48,SSE,158,0.0,5.0,89,0.00,CLR,SKC,0.15,WeatherDisplay:10.37,2013-04-11 14:20:00,
2013-04-11 15:25:00,51.6,47.9,29.47,SSE,166,1.0,5.0,87,0.00,CLR,SKC,0.15,WeatherDisplay:10.37,2013-04-11 14:25:00,
2013-04-11 15:30:00,52.0,48.5,29.47,South,180,0.0,2.3,88,0.00,CLR,SKC,0.15,WeatherDisplay:10.37,2013-04-11 14:30:00,
2013-04-11 15:35:00,51.8,47.7,29.47,SE,135,0.0,2.3,86,0.00,CLR,SKC,0.15,WeatherDisplay:10.37,2013-04-11 14:35:00,
2013-04-11 15:40:00,51.6,47.9,29.47,South,180,0.7,3.5,87,0.00,CLR,SKC,0.15,WeatherDisplay:10.37,2013-04-11 14:40:00,
2013-04-11 15:45:00,51.3,47.5,29.47,South,180,0.0,3.5,87,0.00,CLR,SKC,0.15,WeatherDisplay:10.37,2013-04-11 14:45:00,
2013-04-11 15:50:00,51.1,47.6,29.47,South,180,0.0,1.1,88,0.00,CLR,SKC,0.15,WeatherDisplay:10.37,2013-04-11 14:50:00,
2013-04-11 15:55:00,51.3,48.1,29.47,NE,45,0.0,1.1,89,0.00,CLR,SKC,0.15,WeatherDisplay:10.37,2013-04-11 14:55:00,
2013-04-11 16:00:00,51.4,48.6,29.47,West,270,0.0,1.6,90,0.00,CLR,SKC,0.15,WeatherDisplay:10.37,2013-04-11 15:00:00,
2013-04-11 16:05:00,52.0,48.8,29.46,East,90,0.0,2.3,89,0.00,CLR,SKC,0.15,WeatherDisplay:10.37,2013-04-11 15:05:00,
2013-04-11 16:10:00,52.5,49.4,29.46,SE,135,0.7,1.6,89,0.00,CLR,SKC,0.15,WeatherDisplay:10.37,2013-04-11 15:10:00,
2013-04-11 16:15:00,52.5,49.1,29.46,South,180,1.6,3.8,88,0.00,CLR,SKC,0.15,WeatherDisplay:10.37,2013-04-11 15:15:00,
2013-04-11 16:20:00,52.3,48.9,29.45,NE,45,0.0,1.1,88,0.00,CLR,SKC,0.15,WeatherDisplay:10.37,2013-04-11 15:20:00,
2013-04-11 16:25:00,50.0,48.6,29.45,SSE,161,1.0,4.0,95,0.00,CLR,SKC,0.15,WeatherDisplay:10.37,2013-04-11 15:25:00,
2013-04-11 16:30:00,49.8,48.7,29.45,South,176,3.0,6.0,96,0.00,CLR,SKC,0.15,WeatherDisplay:10.37,2013-04-11 15:30:00,
2013-04-11 16:35:00,49.8,48.7,29.45,ESE,114,2.0,6.0,96,0.00,CLR,SKC,0.15,WeatherDisplay:10.37,2013-04-11 15:35:00,
2013-04-11 16:40:00,49.6,48.8,29.45,ESE,117,3.0,5.0,97,0.00,CLR,SKC,0.15,WeatherDisplay:10.37,2013-04-11 15:40:00,
2013-04-11 16:45:00,49.6,48.8,29.45,SSW,206,2.0,5.0,97,0.00,CLR,SKC,0.15,WeatherDisplay:10.37,2013-04-11 15:45:00,
2013-04-11 16:50:00,49.6,49.1,29.45,South,189,2.0,4.0,98,0.00,CLR,SKC,0.15,WeatherDisplay:10.37,2013-04-11 15:50:00,
2013-04-11 16:55:00,49.5,48.9,29.45,SE,136,1.0,3.0,98,0.00,CLR,SKC,0.15,WeatherDisplay:10.37,2013-04-11 15:55:00,
2013-04-11 17:00:00,49.1,48.6,29.45,SSE,154,3.0,8.0,98,0.00,CLR,SKC,0.15,WeatherDisplay:10.37,2013-04-11 16:00:00,
2013-04-11 17:05:00,49.1,48.6,29.45,South,188,3.0,8.0,98,0.00,CLR,SKC,0.15,WeatherDisplay:10.37,2013-04-11 16:05:00,
2013-04-11 17:10:00,48.7,48.5,29.44,SSW,213,2.0,4.0,99,0.00,CLR,SKC,0.15,WeatherDisplay:10.37,2013-04-11 16:10:00,
2013-04-11 17:15:00,48.7,48.5,29.44,SSW,193,3.0,6.0,99,0.00,CLR,SKC,0.15,WeatherDisplay:10.37,2013-04-11 16:15:00,
2013-04-11 17:20:00,48.6,48.3,29.45,South,169,2.0,6.0,99,0.00,CLR,SKC,0.15,WeatherDisplay:10.37,2013-04-11 16:20:00,
2013-04-11 17:25:00,48.4,48.1,29.44,SSW,209,2.0,4.0,99,0.00,CLR,SKC,0.15,WeatherDisplay:10.37,2013-04-11 16:25:00,
2013-04-11 17:30:00,48.4,48.1,29.44,SSW,203,2.0,4.0,99,0.00,CLR,SKC,0.15,WeatherDisplay:10.37,2013-04-11 16:30:00,
2013-04-11 17:35:00,48.2,48.2,29.44,SSE,151,5.0,8.0,100,0.00,CLR,SKC,0.15,WeatherDisplay:10.37,2013-04-11 16:35:00,
2013-04-11 17:40:00,48.2,48.2,29.45,SE,135,3.0,8.0,100,0.00,CLR,SKC,0.15,WeatherDisplay:10.37,2013-04-11 16:40:00,
2013-04-11 22:44:00,48.2,48.2,29.45,South,180,1.6,8.3,100,0.00,CLR,SKC,0.15,WeatherDisplay:10.37,2013-04-11 21:44:00,
2013-04-11 22:49:00,48.2,48.2,29.45,South,180,3.1,5.8,100,0.00,CLR,SKC,0.15,WeatherDisplay:10.37,2013-04-11 21:49:00,
2013-04-11 22:54:00,48.2,48.2,29.45,South,180,2.2,5.8,100,0.00,CLR,SKC,0.15,WeatherDisplay:10.37,2013-04-11 21:54:00,
2013-04-11 22:59:00,48.2,48.2,29.45,SE,135,1.6,3.5,100,0.00,CLR,SKC,0.15,WeatherDisplay:10.37,2013-04-11 21:59:00,
2013-04-11 23:04:00,48.2,48.2,29.45,East,90,0.7,3.5,100,0.00,CLR,SKC,0.15,WeatherDisplay:10.37,2013-04-11 22:04:00,
2013-04-11 23:09:00,48.2,48.2,29.44,South,180,0.0,5.8,100,0.00,CLR,SKC,0.15,WeatherDisplay:10.37,2013-04-11 22:09:00,
2013-04-11 23:14:00,48.2,48.2,29.44,South,180,1.6,5.8,100,0.00,CLR,SKC,0.15,WeatherDisplay:10.37,2013-04-11 22:14:00,
2013-04-11 23:19:00,48.2,48.2,29.44,South,180,2.2,4.6,100,0.00,CLR,SKC,0.15,WeatherDisplay:10.37,2013-04-11 22:19:00,
2013-04-11 23:24:00,48.0,48.0,29.44,WSW,248,1.6,3.8,100,0.00,CLR,SKC,0.15,WeatherDisplay:10.37,2013-04-11 22:24:00,
2013-04-11 23:29:00,48.0,48.0,29.44,South,180,1.6,3.5,100,0.00,CLR,SKC,0.15,WeatherDisplay:10.37,2013-04-11 22:29:00,
2013-04-11 23:34:00,47.8,47.8,29.44,East,90,0.7,3.5,100,0.00,CLR,SKC,0.15,WeatherDisplay:10.37,2013-04-11 22:34:00,
2013-04-11 23:39:00,47.8,47.8,29.44,SE,135,1.6,5.8,100,0.00,CLR,SKC,0.15,WeatherDisplay:10.37,2013-04-11 22:39:00,
2013-04-11 23:44:00,47.7,47.7,29.44,SE,135,2.2,4.6,100,0.00,CLR,SKC,0.15,WeatherDisplay:10.37,2013-04-11 22:44:00,
2013-04-11 23:49:00,47.8,47.8,29.44,South,180,2.2,5.8,100,0.00,CLR,SKC,0.15,WeatherDisplay:10.37,2013-04-11 22:49:00,
2013-04-11 23:55:00,47.8,47.8,29.44,WSW,248,1.6,3.5,100,0.00,CLR,SKC,0.15,WeatherDisplay:10.37,2013-04-11 22:55:00,